GFSNGP_sfc_rhum_000.txt.gz
RH
12 14 18 17 20 26 24 24 23 20 26 24 32 39 43 48 54 54 53 56 61 58 62 68 70 71 69 67 74 78 80 80 79 81 80 89 92 92 90 85 82 83 83 82
14 12 15 14 16 24 24 26 25 27 26 24 36 42 43 47 52 52 54 48 50 58 64 67 67 72 72 74 74 82 84 81 82 88 94 95 98 97 89 85 86 84 83 82
20 20 19 25 14 18 21 25 22 26 22 27 38 38 38 43 45 44 45 50 57 54 58 60 65 71 77 78 83 90 90 87 90 93 94 95 98 96 93 88 84 82 84 83
20 32 33 16 30 15 20 40 39 39 30 32 35 41 44 44 40 44 51 58 59 56 60 64 63 68 78 85 90 94 94 92 93 92 91 95 95 94 93 91 88 86 86 86
35 34 30 44 46 37 30 42 48 49 51 41 38 41 46 49 48 48 52 57 60 58 61 74 73 77 83 92 94 96 95 95 94 90 90 92 92 92 85 89 90 91 90 89
59 36 44 48 54 52 52 44 50 52 49 45 45 41 54 54 47 47 53 55 59 62 68 74 82 86 88 94 96 97 95 93 92 92 90 90 91 91 89 93 93 95 94 93
70 66 57 61 58 54 39 49 62 58 53 45 52 51 49 54 53 58 62 63 66 75 80 84 91 92 94 96 96 95 93 93 93 94 94 94 96 96 97 98 98 97 95 93
82 70 65 61 59 46 57 61 63 58 62 60 61 59 60 58 60 59 60 64 67 76 84 90 91 88 96 96 96 95 94 95 95 95 94 95 95 98 97 97 95 94 92 93
83 79 79 79 76 69 62 47 52 58 57 63 61 64 65 67 68 74 76 80 86 84 92 92 90 92 97 97 96 96 95 95 95 95 95 95 96 96 97 95 94 95 95 97
81 72 78 72 67 62 62 63 58 60 63 65 71 75 73 71 71 78 83 84 90 90 96 98 97 94 95 97 96 95 96 96 96 96 97 96 98 97 96 96 97 98 98 98
79 77 70 58 68 72 60 54 51 51 58 63 63 68 67 76 91 89 91 96 94 96 98 98 98 99 97 96 92 94 95 96 97 97 98 98 99 99 99 99 99 98 98 91
82 70 67 70 62 64 52 49 50 49 49 53 55 63 64 67 85 94 92 97 97 99 99 99 97 96 95 92 88 91 94 96 97 98 96 97 99 100 99 99 99 100 100 93
81 74 67 60 51 45 45 47 44 46 54 55 55 55 58 68 76 95 97 98 98 96 96 96 95 95 93 94 91 92 93 93 84 83 94 99 98 99 98 95 99 97 94 88
81 74 62 64 65 49 46 43 45 41 45 50 50 51 53 57 69 78 81 91 95 93 95 94 93 93 90 89 88 87 89 92 94 96 97 99 99 98 96 96 91 81 93 84
65 56 66 66 62 58 52 50 50 53 50 49 52 55 57 59 63 72 84 86 94 94 93 92 88 86 89 84 84 85 92 90 89 93 99 99 98 97 95 92 85 84 86 94
66 68 66 62 62 61 58 58 59 61 62 59 62 65 66 66 70 75 84 90 96 94 90 93 92 88 90 91 90 93 94 93 93 92 98 98 98 95 94 95 92 84 80 81
72 78 77 77 75 71 65 61 62 68 67 66 69 72 72 71 73 76 83 89 95 93 93 92 90 93 95 95 94 94 81 86 92 90 93 93 90 92 94 94 90 82 78 82
79 82 85 86 84 78 75 73 71 71 73 72 78 82 82 86 86 88 92 93 94 92 92 96 96 96 95 93 94 92 80 85 89 90 93 95 93 93 94 94 94 83 78 78
80 83 84 82 83 84 84 87 86 85 82 83 86 86 90 93 97 98 96 96 95 94 95 93 90 93 95 89 91 93 88 84 88 92 92 94 88 87 88 84 83 80 74 69
82 84 79 79 78 85 89 86 84 84 81 80 85 85 90 94 96 98 96 95 94 96 92 96 94 94 92 88 82 79 81 81 82 84 85 83 84 82 81 86 77 80 82 78
81 79 77 80 82 80 82 90 89 87 88 89 90 91 92 95 96 95 96 97 92 95 95 96 95 93 90 79 76 73 72 76 78 81 80 78 78 72 72 74 75 79 76 72
81 80 79 80 82 85 86 88 93 92 92 92 91 92 93 91 90 93 93 90 89 98 95 91 90 80 73 73 69 68 67 70 71 74 75 75 73 70 69 67 68 76 76 76
87 83 81 80 86 86 88 86 89 91 91 90 92 89 92 93 96 94 91 88 89 97 91 89 90 87 82 68 63 56 51 52 52 56 63 70 70 68 66 66 66 68 71 77
86 85 86 85 86 83 79 82 89 91 91 91 89 88 82 82 75 86 88 93 95 93 84 83 85 92 83 67 58 51 47 50 50 48 51 83 72 70 69 68 64 62 66 74
86 85 82 80 82 87 88 86 90 87 86 88 88 86 85 82 80 73 77 81 93 88 82 86 89 92 73 66 57 52 51 49 45 48 50 51 51 56 59 61 59 57 58 62
80 77 80 82 75 79 83 90 89 87 89 88 83 76 76 81 75 71 73 80 80 86 77 76 73 76 71 63 57 53 52 51 52 50 48 46 46 50 50 52 53 55 57 57
77 79 71 67 66 69 74 81 82 74 81 82 84 79 82 76 78 79 79 70 70 70 73 76 75 76 68 64 60 57 55 55 60 48 46 45 46 46 44 47 49 51 55 57

GFSNGP_sfc_rhum_006.txt.gz
RH
13 10 9 9 8 8 9 10 14 12 12 12 12 11 10 8 10 16 26 29 32 32 38 45 44 44 44 38 38 35 40 41 49 57 60 66 73 76 75 72 72 75 76 69
19 12 11 11 10 8 7 8 8 9 10 8 9 10 10 9 9 16 26 28 32 35 38 43 44 46 46 46 42 44 48 48 51 62 67 71 80 80 73 76 73 77 73 66
27 15 15 18 13 10 9 7 8 10 10 8 9 10 11 11 14 17 23 27 32 35 36 40 42 46 47 49 47 50 56 55 59 66 72 76 77 78 76 78 77 66 65 66
27 27 31 14 10 10 9 8 8 10 10 10 11 12 13 13 12 16 22 26 30 27 34 41 35 36 42 46 55 56 62 62 64 69 73 76 80 78 76 67 70 70 69 70
30 25 22 18 15 12 12 11 8 10 11 9 10 16 24 23 21 21 23 26 30 29 36 43 36 41 45 47 53 57 62 64 66 68 72 76 79 79 74 70 66 65 66 68
29 31 35 31 34 32 32 25 10 8 10 10 13 19 10 28 22 21 25 27 31 32 37 38 39 39 46 47 53 58 61 64 67 70 71 76 78 78 80 73 67 57 64 67
30 34 26 40 37 32 40 22 11 12 15 16 19 22 33 30 28 26 30 35 36 37 38 43 41 41 46 48 50 51 57 62 69 71 74 78 80 83 81 77 77 73 71 66
33 42 38 43 35 41 46 39 33 28 25 26 34 36 38 36 39 38 37 34 31 40 46 45 44 46 53 56 57 60 64 69 79 78 73 68 86 88 88 86 82 77 88 84
34 29 53 46 51 46 35 38 34 34 32 33 34 36 35 36 35 33 32 31 31 40 51 53 54 53 60 72 71 71 78 82 84 81 78 80 88 88 80 79 65 75 89 67
48 51 50 50 45 39 36 34 32 31 29 30 33 32 34 35 36 40 40 39 37 42 50 62 66 64 69 75 74 75 82 84 86 88 84 80 76 78 74 66 67 82 77 87
50 60 46 47 48 46 43 38 36 34 34 37 40 41 50 55 48 47 49 45 43 46 55 66 69 71 68 72 74 77 84 81 78 75 82 80 78 73 57 72 65 52 59 72
42 61 78 78 52 44 43 40 39 38 40 40 41 47 58 63 58 61 57 57 58 59 65 68 71 72 72 76 77 74 72 68 61 58 62 66 65 63 96 90 100 100 100 85
55 55 66 72 54 37 40 38 34 34 35 39 35 34 38 48 55 65 58 60 60 61 64 67 69 69 69 71 69 70 62 64 52 56 47 51 53 50 51 72 93 92 91 91
51 61 71 75 85 56 36 31 36 30 29 30 29 31 34 36 38 44 55 49 48 56 60 61 61 66 67 65 68 67 60 80 49 47 45 45 48 50 45 48 48 53 83 70
83 64 53 55 80 68 39 31 35 43 36 38 35 39 40 41 39 39 40 40 44 44 55 59 60 66 61 59 61 59 49 45 44 41 40 45 44 43 42 43 42 46 54 65
85 86 78 73 68 57 55 40 35 38 36 41 40 45 47 46 41 39 39 44 42 43 53 60 63 64 59 54 50 43 47 78 58 39 46 45 46 45 44 44 42 46 44 41
86 87 87 83 78 64 58 52 43 40 40 46 47 46 45 44 45 49 51 47 55 58 58 62 70 66 61 53 49 40 37 48 64 44 43 42 40 39 37 38 39 37 36 42
75 81 81 63 48 48 51 44 42 42 44 41 40 43 49 51 58 58 58 56 60 66 66 70 68 63 59 55 48 41 40 42 39 37 37 41 39 39 39 38 36 36 37 58
57 52 47 48 49 52 51 52 48 46 46 45 45 49 50 53 60 58 55 54 59 71 73 69 91 72 62 68 54 37 38 41 40 39 38 60 45 39 38 38 36 40 40 44
46 41 38 39 41 47 54 51 48 48 49 48 48 50 54 56 59 58 63 68 68 60 64 64 61 63 61 65 74 44 37 36 36 36 39 36 34 37 38 57 45 48 53 49
43 41 40 37 39 43 46 50 46 51 52 52 55 57 57 57 55 53 52 48 71 70 62 81 55 49 44 49 42 33 33 35 37 38 38 37 37 37 38 39 44 38 38 42
44 42 42 39 37 41 46 48 51 52 56 57 56 54 52 54 52 55 57 51 54 100 59 47 41 66 46 68 31 30 29 31 31 32 33 34 34 33 33 33 32 32 32 34
44 44 40 43 48 48 41 43 47 53 57 59 56 53 46 38 38 42 58 54 53 68 39 37 75 82 79 34 27 26 27 29 28 27 28 28 29 30 30 30 29 28 28 29
48 47 52 46 40 41 48 49 44 47 52 51 47 48 40 29 32 31 39 69 91 72 46 50 61 85 90 28 27 27 26 28 28 26 25 57 23 24 26 28 29 28 27 33
52 47 47 45 36 33 40 43 34 33 38 44 41 37 38 33 33 30 34 37 88 68 47 91 89 88 40 32 31 30 30 29 27 27 26 28 27 24 24 25 28 29 29 27
47 36 37 46 39 33 29 28 28 27 28 28 28 27 27 27 27 29 29 50 32 51 30 34 43 50 40 34 31 30 30 29 30 29 31 27 26 27 26 24 24 24 25 24
33 45 30 30 27 28 28 32 31 31 32 33 31 29 29 27 29 33 44 27 26 26 26 26 26 38 29 27 27 28 29 28 38 28 27 27 27 27 26 24 24 24 24 25

GFSNGP_sfc_rhum_009.txt.gz
RH
12 10 10 8 6 6 7 8 11 10 11 11 12 10 10 8 9 10 10 18 21 21 27 32 33 36 35 28 30 28 37 38 47 58 59 61 64 69 71 73 73 71 69 69
16 10 9 10 8 7 6 6 7 8 9 7 8 10 10 9 10 10 10 11 21 24 26 33 35 38 38 37 34 35 44 42 50 61 65 66 69 73 78 77 74 72 70 72
25 15 14 16 11 9 9 8 7 9 9 7 9 10 11 10 10 11 10 10 19 24 27 31 32 39 40 43 38 43 48 49 53 63 68 71 72 78 82 82 75 73 70 63
21 21 28 14 10 9 10 9 8 8 8 8 11 11 10 8 9 11 12 12 15 19 26 34 29 30 36 40 51 53 57 56 58 63 68 72 78 81 84 80 77 73 72 66
27 26 35 27 21 20 21 15 9 10 9 7 7 7 11 9 8 10 10 10 15 20 26 38 35 39 44 44 50 52 56 60 60 60 66 68 75 78 78 81 79 71 69 74
28 30 30 18 26 20 18 21 11 10 9 7 7 10 10 10 11 14 13 10 19 23 27 35 38 36 44 45 49 53 56 57 61 64 67 67 72 83 82 80 76 61 64 77
26 29 22 25 22 22 28 26 32 26 23 14 9 10 13 13 13 17 16 21 26 28 39 43 40 37 50 48 49 47 50 54 61 64 69 70 75 81 81 82 82 83 79 77
25 28 30 29 24 28 40 33 29 28 26 25 12 10 23 24 23 22 23 27 28 36 42 41 42 47 53 57 55 57 59 60 66 69 63 73 85 79 82 87 83 80 83 76
23 24 43 39 40 35 31 32 30 28 23 21 18 25 27 31 32 33 34 34 32 36 46 44 50 52 59 66 63 64 66 70 73 80 77 79 83 85 83 84 82 73 70 72
36 45 43 38 33 32 32 31 27 26 26 25 27 29 32 32 31 31 31 36 36 40 48 54 54 53 62 66 65 69 77 85 85 83 81 80 74 75 79 75 68 65 69 80
48 48 45 46 43 42 40 32 33 31 42 33 35 36 36 41 39 36 38 40 43 48 54 59 61 65 62 66 67 68 75 79 82 74 78 82 77 74 70 73 68 56 61 66
53 46 52 52 42 38 42 44 42 42 52 49 54 62 51 45 44 45 46 47 53 53 58 63 64 67 68 68 66 68 71 65 65 65 71 76 71 69 97 92 99 99 93 76
69 45 45 44 41 41 35 33 35 35 36 36 33 34 37 45 52 66 48 48 50 54 57 63 64 68 71 71 70 70 59 57 48 54 48 56 51 52 58 74 90 90 92 92
50 51 58 49 70 52 40 30 33 27 28 29 30 29 29 30 35 43 54 58 57 58 64 60 60 67 75 68 74 61 56 81 46 38 37 40 42 42 39 48 50 54 85 76
58 54 56 59 76 83 73 64 36 35 32 33 31 32 33 35 37 38 36 36 42 51 52 54 63 62 56 56 60 59 51 42 40 37 35 40 37 37 36 36 38 48 54 64
72 77 72 70 73 81 80 66 54 38 34 39 41 44 41 37 39 37 38 36 35 40 48 51 56 56 53 53 54 45 43 68 49 35 37 36 36 34 33 34 34 64 46 44
83 85 88 89 88 79 74 70 68 61 39 37 43 45 45 44 47 48 47 41 44 44 44 49 62 61 56 51 45 35 33 37 58 34 35 33 34 33 31 31 30 35 44 50
85 81 87 88 88 84 68 57 60 45 51 40 36 38 45 49 62 60 48 46 53 54 50 62 64 71 56 48 43 33 32 35 34 32 33 35 33 31 30 29 29 36 56 52
60 58 56 45 46 54 60 56 48 45 46 43 42 43 44 46 50 52 47 47 52 59 75 77 85 67 57 60 55 32 35 31 31 31 36 55 38 32 34 45 38 48 59 53
54 48 39 38 40 42 47 41 42 43 43 44 43 44 47 46 46 48 54 63 66 62 71 62 64 61 57 57 64 32 44 35 47 44 49 36 32 46 51 51 38 38 40 45
39 41 36 35 40 40 43 45 46 56 49 50 52 57 54 48 44 57 74 58 64 63 61 74 51 44 41 44 40 36 36 38 44 46 35 34 32 30 36 37 35 38 47 48
39 37 36 33 37 39 44 43 45 49 55 57 49 50 58 48 57 48 49 61 46 93 49 50 53 64 44 64 31 29 32 31 30 30 31 31 31 30 29 33 40 42 36 44
38 37 37 37 38 38 35 36 39 44 51 48 50 49 40 37 41 73 77 51 45 66 58 55 69 70 70 36 26 24 25 27 26 26 26 26 26 26 27 27 26 26 26 26
42 44 45 38 37 38 42 39 36 39 41 50 40 40 36 32 43 28 40 59 76 70 47 53 54 76 87 29 26 24 24 26 26 24 23 45 23 21 21 23 24 25 26 29
42 44 43 40 34 32 34 35 36 31 38 51 46 40 35 30 29 26 26 35 72 61 65 86 77 76 36 26 26 29 31 27 25 24 24 24 23 23 23 22 22 24 25 24
38 31 33 38 31 27 26 27 26 27 26 28 27 25 25 24 28 26 40 44 27 41 24 41 40 42 33 28 26 28 38 30 28 26 26 24 23 24 23 23 23 22 22 23
31 40 26 26 24 24 24 27 26 26 26 28 27 25 24 24 27 29 40 26 25 26 26 25 32 44 31 26 26 32 32 26 37 26 26 26 26 25 23 23 23 23 22 22

GFSNGP_sfc_rhum_015.txt.gz
RH
13 12 11 10 12 9 10 10 14 13 11 11 14 24 24 22 23 18 21 24 33 27 29 33 39 42 43 46 49 60 68 73 73 73 73 76 77 80 77 79 82 87 84 84
22 15 10 11 11 12 9 9 10 11 11 14 16 19 27 24 18 16 15 28 35 33 28 32 35 42 43 46 48 50 64 68 68 71 74 77 80 82 85 82 89 86 91 88
26 20 20 20 12 12 14 11 12 14 10 13 13 14 20 22 20 18 17 28 32 36 33 31 35 38 44 46 45 50 57 65 66 68 76 77 80 82 90 87 86 93 87 90
30 32 38 25 15 14 14 16 14 13 14 18 18 20 22 18 14 19 18 24 33 30 47 38 36 36 39 43 48 51 56 63 64 70 72 77 78 84 79 86 83 95 96 96
38 30 28 21 17 18 20 18 15 29 26 16 15 17 18 18 18 14 14 14 18 37 42 48 36 38 40 43 49 49 56 59 62 66 72 76 81 79 80 92 95 98 98 96
39 36 31 25 19 24 27 39 37 36 38 36 31 29 23 37 29 20 22 15 13 18 34 38 47 40 41 44 49 49 47 57 59 62 70 79 78 82 97 96 98 98 97 94
39 28 29 26 25 26 38 53 45 37 37 39 45 46 39 36 36 36 40 23 24 30 41 43 53 41 44 43 44 51 46 82 68 71 79 79 94 97 97 97 95 97 94 88
49 49 49 45 33 41 53 49 38 37 36 42 42 38 38 33 34 35 35 50 34 54 54 66 60 53 60 56 66 68 78 84 90 88 87 95 97 96 96 95 95 93 87 89
45 60 68 66 62 60 50 49 44 59 63 50 45 48 37 45 46 38 56 67 73 64 76 78 75 64 76 89 81 81 86 91 88 89 92 96 97 98 99 98 95 94 88 95
68 45 48 57 58 63 81 80 70 72 73 72 82 77 75 62 62 74 75 69 71 78 84 88 85 82 84 81 80 84 91 95 93 94 95 95 97 95 94 95 91 90 96 99
83 88 90 65 83 70 73 75 68 67 71 75 78 82 86 90 87 79 78 76 72 78 87 89 86 86 81 84 86 92 92 96 96 95 95 98 98 99 91 94 90 97 97 96
100 93 97 93 78 82 65 68 66 66 72 78 84 90 89 94 93 88 86 90 89 86 89 93 92 93 92 92 92 95 95 93 92 90 88 87 86 86 93 95 93 95 97 91
94 87 91 84 64 50 50 48 52 58 66 76 86 88 89 91 90 90 92 91 87 88 88 92 93 92 91 91 91 91 90 94 91 84 84 83 83 85 91 90 93 96 94 90
85 86 89 93 95 64 54 46 45 44 49 66 78 85 89 92 90 93 95 94 89 89 91 92 94 96 88 87 86 87 86 94 86 84 85 87 84 83 82 83 89 92 90 91
89 79 88 90 89 85 64 57 58 61 54 53 54 68 72 82 90 93 93 90 90 90 90 93 94 95 91 88 88 82 79 78 77 79 83 83 79 77 75 76 81 90 91 88
88 89 74 75 80 81 74 77 71 65 58 59 65 68 68 68 72 73 67 83 88 93 93 94 94 90 86 89 87 92 84 78 76 72 93 90 84 75 77 74 80 82 87 93
90 92 91 92 90 86 83 84 84 79 66 58 67 71 72 74 73 77 70 84 81 89 89 89 92 88 87 88 89 92 88 86 78 80 88 78 64 63 70 69 73 73 74 78
91 88 86 86 88 84 81 86 88 85 74 58 62 66 71 70 69 77 79 82 81 86 93 95 95 91 86 86 86 69 67 64 65 62 72 80 70 61 69 66 69 72 68 80
82 78 67 56 60 65 73 78 76 77 81 60 78 78 68 69 75 80 83 91 90 89 92 90 85 88 89 86 85 76 63 59 74 70 62 66 77 74 71 67 73 76 78 70
59 58 59 59 58 64 68 72 72 68 68 69 77 82 80 77 78 83 88 92 93 94 92 91 83 82 82 84 79 74 76 73 78 73 87 88 85 88 89 82 79 71 73 65
61 63 62 59 67 65 70 74 73 75 72 69 69 74 79 83 79 76 87 92 91 82 77 83 80 83 77 81 79 75 74 80 89 85 78 79 78 78 82 75 71 70 70 70
53 54 55 60 64 66 64 70 72 71 74 71 70 71 71 78 82 80 86 85 75 76 69 77 80 86 75 81 63 56 61 64 67 72 64 66 64 67 58 71 82 75 69 67
62 66 63 62 64 64 64 62 60 67 67 70 63 65 70 74 76 74 80 72 71 67 60 58 72 71 66 68 62 53 50 51 52 51 50 47 45 46 49 51 48 56 62 71
60 58 67 47 58 63 62 63 54 68 65 65 62 62 62 60 71 64 65 69 72 69 62 59 59 71 66 51 49 47 47 46 42 45 45 53 44 43 41 41 43 46 47 49
69 54 54 48 44 47 49 55 44 42 56 57 56 43 42 51 56 58 58 52 65 68 67 74 71 66 59 57 50 48 52 46 47 43 46 45 42 45 47 44 41 45 47 45
53 45 44 45 39 39 40 40 43 48 46 46 46 44 43 49 42 39 45 53 45 54 51 65 61 62 56 53 54 59 62 62 67 58 54 54 49 48 44 46 49 43 44 43
41 48 37 37 33 36 41 42 40 49 47 50 49 52 50 43 44 43 48 38 45 40 51 52 58 76 63 55 59 64 68 68 81 69 72 68 73 66 66 70 73 71 65 72

GFSNGP_sfc_rhum_021.txt.gz
RH
43 35 28 17 16 13 16 14 16 13 14 11 15 16 15 16 26 30 34 31 32 27 36 37 39 44 48 55 60 59 65 70 72 74 74 77 79 77 76 85 83 86 86 86
49 29 24 23 16 15 12 12 13 13 15 12 11 14 14 12 15 32 30 28 26 24 27 32 35 43 44 55 60 62 67 71 71 76 77 81 84 85 83 85 86 90 90 87
70 41 36 28 18 14 13 12 12 14 13 13 12 13 13 14 20 22 28 24 26 23 22 24 30 37 44 52 55 66 70 70 73 76 81 84 85 88 90 87 90 96 91 90
70 55 50 21 13 12 13 15 16 15 15 16 13 11 14 17 19 25 26 26 24 20 28 31 32 36 39 47 58 67 71 73 75 78 80 83 87 90 91 88 95 97 96 94
68 67 44 25 21 14 17 17 19 14 15 16 17 22 18 20 21 18 23 25 27 29 24 28 32 37 42 49 56 67 72 73 75 79 81 83 89 90 90 89 90 97 96 96
65 62 52 37 60 60 19 19 32 20 19 18 22 22 16 18 24 22 21 25 32 42 45 39 36 38 45 50 56 67 70 71 72 77 81 85 85 87 85 90 94 96 97 96
58 59 48 73 85 69 36 20 46 35 28 30 23 24 23 29 41 38 35 26 26 44 50 40 43 44 49 50 55 56 63 66 70 76 80 81 83 89 94 96 96 96 96 98
61 65 68 82 84 88 84 87 58 49 48 49 57 69 67 77 66 82 94 96 86 38 35 55 53 45 50 53 49 52 56 64 72 74 78 80 91 94 96 96 96 99 99 100
61 65 91 85 94 90 93 97 97 94 92 84 93 99 98 98 97 87 88 97 98 98 86 62 54 59 49 49 50 54 58 61 68 74 77 86 95 96 98 97 98 99 99 99
84 82 92 87 87 90 89 91 88 91 94 95 97 92 90 90 90 81 78 73 92 96 97 97 94 93 71 48 52 56 60 61 66 76 79 88 94 95 94 98 99 99 99 99
86 94 91 87 87 91 80 82 81 82 86 88 85 92 93 96 95 91 89 85 77 86 89 89 91 92 84 89 75 63 59 73 74 81 89 97 99 99 98 98 99 99 99 98
92 94 93 96 92 85 87 84 84 85 90 93 91 96 96 99 99 99 98 94 91 84 83 86 88 89 78 88 98 85 88 93 94 97 99 99 99 100 100 100 100 100 100 100
96 94 90 92 92 80 86 80 78 79 80 84 87 93 94 97 98 100 94 95 96 94 87 92 95 92 91 88 98 97 95 99 99 99 99 99 99 98 99 100 100 100 100 100
92 86 92 91 88 75 71 71 74 74 76 81 84 85 92 97 97 99 98 99 97 96 96 95 93 94 95 89 96 98 99 100 99 99 99 98 96 95 96 97 98 100 98 100
95 86 93 94 92 88 77 67 69 74 68 69 74 81 88 95 95 97 97 97 97 97 96 97 95 98 93 95 95 96 97 98 97 97 99 99 97 96 92 95 97 93 95 97
94 89 86 90 95 92 81 79 74 75 75 64 71 73 77 78 72 78 91 96 96 98 96 95 95 98 98 98 97 96 96 100 99 97 98 98 91 84 90 92 91 90 91 98
91 94 92 92 91 94 94 91 88 86 74 75 82 76 70 68 67 83 77 89 93 96 98 98 98 94 92 98 96 95 97 98 96 95 96 96 94 85 81 85 89 86 85 89
93 94 92 87 86 90 87 86 86 86 86 80 78 78 84 88 93 93 94 88 78 76 88 94 93 93 90 91 96 97 98 98 97 97 98 97 96 96 95 88 82 82 97 94
90 88 84 85 88 84 82 84 81 79 81 84 85 91 93 96 96 96 95 92 96 95 94 89 87 82 88 89 91 91 89 93 99 99 98 100 98 97 96 88 93 96 95 90
92 91 86 78 79 81 83 80 76 74 77 79 83 87 88 88 92 92 93 95 96 96 91 91 86 82 87 86 81 86 86 85 92 98 98 98 98 99 99 99 97 95 94 94
76 72 77 74 72 74 76 78 76 74 77 84 89 92 93 90 82 83 84 75 88 75 69 77 81 85 81 84 86 93 90 89 94 95 94 96 97 97 97 93 93 90 87 88
45 44 44 45 50 54 54 55 52 57 66 69 76 74 72 78 74 81 87 82 69 81 70 66 78 80 71 78 83 90 87 89 90 89 90 90 93 90 91 90 91 86 81 85
39 39 40 41 43 44 44 44 46 49 53 54 56 65 81 85 84 80 78 73 80 75 69 73 80 80 73 58 56 72 80 83 82 78 82 86 83 82 83 78 81 80 82 88
38 41 41 38 40 45 49 50 54 53 54 49 47 43 48 54 51 54 72 78 83 76 77 82 80 82 77 68 69 74 73 67 58 55 61 65 51 57 66 68 76 84 88 95
40 42 44 46 52 59 56 54 56 58 58 63 61 50 47 46 46 54 64 67 76 76 76 80 79 78 70 72 74 76 84 80 84 88 84 73 66 72 70 61 67 71 67 64
50 49 50 52 57 58 57 58 66 71 65 69 69 66 61 54 51 51 50 55 51 56 54 57 65 69 73 76 76 81 78 81 82 84 85 84 86 89 92 91 90 91 92 91
44 53 47 48 48 60 65 70 70 72 72 64 64 64 63 61 61 59 61 53 52 50 51 51 50 56 59 63 75 86 89 82 91 87 86 90 89 83 84 79 78 78 77 82

GFSNGP_sfc_rhum_024.txt.gz
RH
55 46 39 36 31 26 23 17 20 16 17 19 20 21 18 19 33 34 39 47 49 40 40 45 46 49 50 54 58 58 64 65 72 75 75 78 82 83 82 88 86 85 87 87
62 40 37 40 32 27 23 20 21 16 20 16 16 20 21 20 23 24 34 41 47 44 44 46 45 51 52 58 60 62 68 68 71 76 78 80 83 85 86 89 88 89 88 87
72 53 45 38 26 22 22 19 17 20 19 16 18 20 18 15 19 21 22 29 44 42 39 41 42 48 50 55 57 65 70 71 75 78 82 82 83 85 86 88 90 93 89 88
79 63 58 35 28 23 19 16 17 16 20 18 16 16 15 15 14 19 21 31 39 38 36 36 34 34 49 53 63 68 72 74 77 80 82 83 86 88 87 84 88 92 93 92
70 71 40 31 50 75 86 54 18 17 18 20 15 17 23 23 22 19 23 28 31 34 36 42 44 50 53 56 64 71 73 75 77 79 82 83 88 89 87 87 88 93 93 94
79 70 62 44 78 68 81 72 30 21 18 17 23 23 22 19 25 23 25 28 33 38 44 42 49 50 54 56 64 70 74 73 75 79 82 84 85 87 86 87 91 92 95 94
73 73 55 42 84 76 51 62 90 90 68 18 21 17 35 43 55 62 52 49 36 46 51 60 58 58 58 58 63 62 66 72 77 79 82 80 84 84 90 93 93 95 94 95
75 79 67 82 81 87 84 92 83 93 88 35 58 84 94 94 96 96 99 98 90 67 70 67 69 68 71 72 64 69 74 76 80 81 78 78 86 91 94 93 95 97 97 96
60 58 72 91 94 91 86 89 86 90 94 90 96 96 94 92 86 84 92 96 96 93 93 94 95 89 76 90 75 72 78 84 82 81 82 82 91 95 95 95 94 96 98 97
88 68 64 93 90 88 85 86 82 83 84 87 91 88 88 85 85 81 79 78 92 91 87 87 90 89 90 91 93 77 81 85 85 84 85 84 87 87 87 94 97 98 98 98
77 71 86 93 88 90 84 83 85 87 89 88 88 96 92 97 98 97 96 92 84 85 87 88 86 84 82 84 95 93 83 84 85 82 88 94 98 98 94 93 94 95 96 99
89 70 87 95 91 86 89 89 92 94 92 94 93 97 98 97 95 93 94 94 94 96 95 96 94 92 88 86 92 99 96 92 92 94 95 99 99 99 100 100 100 100 100 98
90 84 95 94 91 88 90 89 89 92 91 93 94 96 97 96 94 98 93 97 98 97 98 95 95 94 93 95 92 98 99 95 97 99 99 98 99 98 99 100 100 100 100 100
84 93 98 94 97 95 92 87 86 87 90 90 94 96 92 96 95 96 97 95 93 95 98 98 97 98 97 96 96 97 98 100 99 99 98 99 98 98 98 98 99 99 100 100
93 94 93 94 92 94 92 91 86 84 82 80 80 85 88 95 95 95 95 93 93 93 94 94 93 94 95 97 98 97 99 99 99 99 99 98 97 97 98 99 99 99 100 100
97 96 92 90 94 93 95 96 95 90 82 82 77 74 77 82 84 88 93 93 94 96 96 95 92 94 96 96 94 96 99 99 100 99 99 97 97 98 99 99 99 99 99 99
93 98 94 91 88 92 96 90 87 89 85 87 88 83 79 79 83 85 85 87 88 90 89 91 93 93 95 92 93 97 97 98 100 100 99 99 97 96 98 98 98 98 98 99
93 96 94 95 93 92 92 85 82 81 85 84 87 86 88 91 96 96 94 88 80 79 89 91 88 89 91 93 96 97 97 98 98 98 98 97 97 96 96 97 97 97 98 97
94 94 90 93 92 86 83 81 82 83 86 86 87 91 87 87 87 85 80 78 85 81 80 87 85 83 87 88 91 96 97 97 96 97 98 98 96 95 96 96 97 97 96 94
90 89 81 77 75 79 82 83 83 85 84 83 81 84 87 80 84 85 82 85 91 93 89 84 80 73 86 88 83 88 89 95 98 99 99 98 96 97 97 99 95 95 95 94
80 71 65 62 56 59 60 72 75 78 78 78 81 82 86 86 75 74 68 64 79 79 73 78 77 78 84 84 81 87 85 84 94 97 97 99 99 99 99 98 96 95 93 93
66 55 53 64 63 54 52 55 58 60 60 63 65 65 68 80 82 79 83 89 74 84 74 74 75 79 70 75 74 85 84 85 86 83 90 93 98 98 98 99 98 96 92 89
64 54 53 52 56 59 56 55 55 56 59 58 58 62 71 72 78 82 86 82 75 78 73 74 84 82 78 71 68 72 78 77 78 89 91 91 89 89 94 92 92 91 91 94
53 54 56 56 56 60 63 59 56 61 66 64 61 58 59 62 60 58 59 64 72 68 65 74 78 81 77 70 70 72 76 78 76 71 63 71 60 57 63 78 79 85 89 92
56 57 60 63 67 68 67 66 63 64 64 66 64 62 59 55 57 55 55 55 64 58 56 68 73 74 70 73 74 78 80 78 75 75 77 78 77 78 78 76 77 75 73 74
52 53 56 60 69 71 70 66 68 68 62 63 63 62 58 57 56 55 55 59 54 56 50 51 58 64 69 71 76 81 86 89 88 86 77 74 75 74 74 72 70 71 72 71
45 54 49 55 56 68 70 67 64 66 66 62 60 58 56 53 54 52 56 52 53 54 54 52 50 53 53 68 73 74 75 79 94 92 94 94 93 85 78 75 72 74 72 69

GFSNGP_sfc_rhum_030.txt.gz
RH
22 24 21 16 13 12 14 14 16 13 13 12 11 11 11 11 11 12 13 13 17 22 24 29 30 36 41 35 35 34 42 42 51 60 62 63 67 69 68 68 68 68 68 66
31 21 21 21 19 17 15 14 14 13 14 10 10 12 13 13 14 13 13 11 11 16 22 27 31 36 36 42 39 40 47 47 53 62 67 68 70 72 73 71 71 71 69 68
31 22 22 27 22 19 18 16 16 19 16 13 13 14 14 13 12 12 13 13 14 14 16 23 26 32 35 43 40 46 52 54 58 64 69 71 69 73 75 75 72 75 71 69
26 27 38 19 14 15 17 16 15 16 16 15 15 14 13 12 12 12 12 12 13 9 11 18 19 15 28 31 49 51 57 58 61 65 68 71 73 74 76 72 74 73 73 73
31 27 22 18 17 17 20 20 14 16 15 13 12 12 14 11 10 12 13 12 12 10 12 16 17 20 24 33 40 49 56 61 62 62 65 67 74 76 73 72 72 70 68 73
26 34 33 20 13 14 19 28 18 23 25 23 25 17 13 11 9 10 11 12 13 12 12 15 23 21 28 31 37 50 52 56 59 62 66 68 72 76 72 70 68 58 64 68
28 29 22 16 18 30 35 44 34 33 34 37 40 33 30 27 27 23 20 18 18 20 21 23 28 27 34 35 38 43 46 47 56 62 68 69 74 73 74 72 67 73 72 70
28 30 29 13 14 23 37 39 37 39 37 40 42 43 47 45 42 34 26 27 29 32 26 26 33 34 39 52 45 48 50 52 60 65 56 53 75 75 75 74 79 77 80 70
24 23 25 21 19 21 29 35 35 44 44 45 46 48 50 49 44 28 32 34 36 25 34 43 48 44 47 55 53 52 56 60 61 64 63 65 73 76 66 74 61 68 58 59
34 28 28 26 25 26 24 27 30 31 38 44 49 51 52 45 40 41 44 50 44 42 43 54 56 53 54 60 57 58 61 62 61 63 65 64 53 58 57 54 60 55 54 54
44 38 33 26 24 24 27 27 25 26 35 45 52 57 50 46 49 50 54 51 49 52 56 61 62 63 61 64 63 59 59 58 60 54 63 61 62 51 52 56 51 56 54 51
41 36 39 41 31 30 28 34 31 37 40 47 66 72 67 56 55 57 59 58 59 58 59 61 60 63 64 64 62 59 57 48 43 40 42 50 50 58 98 94 100 100 99 75
44 39 37 37 39 38 45 44 38 39 41 64 82 81 73 76 77 86 63 63 65 66 65 66 66 70 76 77 67 69 63 64 45 54 40 39 42 47 49 85 100 100 100 100
55 53 63 50 56 47 45 44 47 48 54 84 84 80 82 82 83 79 74 66 63 63 65 66 69 73 69 68 69 69 69 98 53 54 51 51 59 62 63 87 87 85 100 100
81 70 60 56 55 57 52 54 60 75 88 93 87 83 82 78 73 68 61 61 62 64 67 67 71 74 66 62 64 63 50 52 52 53 65 86 94 97 98 98 98 99 99 100
77 76 70 63 61 62 70 63 89 93 93 94 83 69 61 56 55 55 55 58 60 64 66 71 72 70 64 62 57 52 59 90 75 52 50 55 63 85 96 96 97 97 98 99
70 75 70 68 66 68 66 88 89 93 91 91 86 71 69 62 59 59 53 50 58 62 60 66 68 65 66 64 57 50 46 50 86 48 51 55 55 56 58 58 66 90 98 100
78 74 77 89 86 90 94 93 96 97 90 81 84 81 73 74 76 67 70 63 60 60 65 66 63 60 60 63 57 54 55 54 47 46 49 58 57 57 54 53 62 79 89 93
93 95 95 95 95 95 93 95 95 93 82 75 68 64 57 60 68 77 70 67 69 70 69 64 74 59 57 64 54 45 51 59 66 61 58 71 57 59 69 71 74 83 88 89
92 90 90 92 92 92 94 95 92 90 85 81 77 78 72 68 60 60 64 70 70 61 59 61 54 52 53 56 60 42 48 51 55 62 65 65 74 88 88 95 90 92 94 94
86 89 88 87 90 89 90 90 88 88 85 83 86 84 81 69 62 60 60 61 63 59 55 62 55 45 43 45 40 39 43 51 62 65 65 67 72 76 69 76 94 96 96 95
56 57 67 75 77 80 77 83 84 82 78 73 69 63 61 58 57 60 60 64 60 74 54 54 54 76 53 57 39 38 39 45 49 53 60 70 64 82 93 96 95 91 94 97
53 53 56 58 61 64 63 66 63 65 66 66 62 60 55 46 45 47 49 50 46 62 47 49 75 81 78 48 46 44 43 40 41 55 58 54 64 68 84 94 96 96 97 98
49 49 47 44 47 50 58 59 56 58 60 58 53 53 48 41 40 34 37 49 59 52 47 53 57 73 61 60 64 67 69 73 44 39 35 52 40 43 49 72 91 94 94 95
48 46 48 45 43 39 45 45 42 45 47 49 47 42 40 36 38 37 34 34 52 40 34 59 65 60 34 34 52 76 83 80 60 57 58 43 36 36 39 41 48 60 62 65
37 35 39 48 41 36 34 35 36 35 34 36 34 31 29 29 28 28 29 38 31 38 29 31 35 33 33 34 33 34 38 44 63 74 66 63 61 50 44 42 41 40 41 42
26 41 32 35 35 35 34 36 35 35 34 33 32 30 29 28 29 30 38 26 26 25 26 25 25 32 31 34 36 36 35 34 48 37 41 62 82 82 66 59 53 50 47 48

GFSNGP_sfc_rhum_033.txt.gz
RH
17 13 13 10 10 9 11 11 13 10 11 10 11 11 10 10 11 12 14 14 14 15 18 22 26 30 33 29 31 31 38 39 48 57 59 61 64 66 68 68 68 68 69 66
23 15 18 17 13 10 9 10 10 10 10 8 9 9 10 10 11 12 12 11 11 12 17 20 23 30 32 36 33 34 42 42 49 57 64 66 68 69 71 70 71 71 70 68
33 22 21 24 16 14 11 10 10 13 12 9 10 11 12 12 12 12 12 11 11 11 12 18 19 25 29 37 37 39 46 47 50 58 64 69 68 71 73 75 72 75 71 69
27 27 37 18 13 12 14 13 11 12 13 12 13 13 12 11 12 13 12 12 11 8 10 13 10 13 24 26 46 48 49 51 53 57 61 67 71 72 74 72 74 73 72 73
30 25 20 16 15 15 17 17 13 14 14 12 12 12 15 12 11 13 12 11 10 9 9 15 11 14 18 27 35 47 50 54 54 56 61 66 71 74 72 72 72 72 70 74
30 31 32 19 14 12 15 21 14 13 14 13 13 17 15 20 19 15 11 10 11 10 10 10 15 12 14 18 28 45 49 52 56 58 63 66 70 75 73 71 70 60 67 70
28 32 22 16 16 16 28 41 20 16 18 21 23 27 34 30 31 31 30 27 23 21 20 20 18 15 28 25 26 34 42 47 57 60 66 67 71 73 74 73 68 74 70 70
26 31 34 15 14 23 33 33 34 37 38 40 36 35 34 33 36 36 35 30 25 24 26 30 26 26 39 44 40 44 45 52 58 64 55 52 73 74 75 76 78 77 78 69
21 21 24 19 21 17 17 27 28 29 27 30 31 35 34 38 40 38 34 31 20 22 33 28 31 35 46 53 52 50 55 61 61 64 64 64 72 76 67 75 62 67 58 62
26 24 23 20 17 16 17 22 23 22 24 23 25 30 37 41 40 37 35 36 35 37 37 36 45 47 48 51 52 56 62 65 63 64 67 65 52 55 56 52 56 58 51 54
31 26 26 25 23 21 20 22 21 20 24 24 23 27 38 48 48 41 44 48 46 47 48 54 58 60 55 55 54 54 56 55 57 50 60 62 62 46 48 55 48 46 49 46
37 33 33 34 27 26 26 24 24 25 25 33 31 36 51 57 56 55 51 52 55 55 57 58 58 60 62 61 63 57 56 50 44 41 43 50 48 57 93 92 96 100 100 89
50 37 32 32 33 28 29 27 24 28 32 36 34 34 60 69 67 73 68 58 57 58 58 61 63 64 64 63 59 60 57 60 39 44 33 34 40 43 43 67 100 100 100 100
59 57 63 45 40 32 32 27 34 30 30 33 35 41 66 84 82 68 66 62 56 57 61 63 62 63 60 61 66 65 62 90 43 42 40 42 44 47 47 49 50 59 95 94
80 65 52 46 54 48 39 38 38 35 32 32 35 61 86 88 85 78 67 70 72 72 71 64 66 71 63 55 58 58 46 44 43 47 54 60 58 62 64 74 84 86 83 91
71 71 66 63 55 51 48 55 57 46 35 40 56 85 88 85 68 64 64 56 58 65 69 74 79 64 58 60 54 51 56 80 69 44 43 45 46 50 53 58 61 63 64 65
68 77 73 72 61 54 53 53 62 55 47 62 70 91 96 77 62 63 59 57 60 62 62 63 63 62 62 56 49 42 40 44 75 43 46 48 47 47 47 48 58 54 58 73
93 84 64 67 66 64 71 77 82 68 76 95 92 93 81 76 78 73 68 62 61 62 58 60 59 56 55 54 45 41 40 39 38 39 40 46 45 46 47 52 61 62 52 70
95 96 95 94 94 94 95 93 94 94 95 93 95 92 84 80 80 76 68 66 62 64 61 52 68 54 52 57 60 44 41 46 50 53 51 59 50 53 64 70 66 74 72 68
91 91 90 90 91 95 96 92 91 94 93 90 90 92 92 92 88 76 71 75 69 59 60 57 48 48 48 49 55 40 58 60 52 48 50 49 49 55 71 92 84 87 81 86
70 86 86 89 94 93 93 92 91 94 92 92 93 94 92 88 86 88 92 91 72 62 58 72 68 46 39 41 40 38 40 44 57 62 58 71 71 69 71 79 91 94 93 95
47 51 64 79 82 81 78 80 82 80 85 85 84 84 81 85 82 80 77 78 62 64 45 49 54 76 56 54 37 34 36 41 44 47 50 56 70 78 85 93 94 94 96 97
47 47 46 49 52 61 54 52 52 58 60 60 60 58 51 43 40 41 47 48 45 56 40 37 68 77 71 49 47 46 44 39 35 40 50 61 62 66 69 83 90 91 97 98
42 45 43 42 43 44 54 55 49 51 53 51 47 46 42 36 37 32 35 42 52 46 38 44 51 67 51 43 61 66 66 62 54 49 34 48 38 40 46 59 78 89 92 94
35 36 42 40 38 35 42 39 36 39 44 47 42 38 37 31 32 32 31 32 49 35 29 52 60 56 30 29 31 38 58 54 54 55 51 48 41 37 38 39 42 56 69 90
32 25 29 38 33 29 28 30 30 30 29 31 30 28 27 27 27 28 28 35 27 34 24 24 24 26 28 30 31 32 32 33 54 66 64 58 54 52 49 46 46 47 47 46
26 40 26 27 26 27 28 29 28 29 30 27 27 26 24 23 24 24 33 22 20 20 21 19 19 25 20 23 26 30 32 32 45 31 31 34 39 46 48 51 53 50 46 46

GFSNGP_sfc_rhum_036.txt.gz
RH
18 15 12 10 10 10 12 12 15 11 11 14 15 14 13 12 14 16 19 19 22 21 30 33 36 39 40 36 40 38 47 54 60 65 66 68 72 72 74 74 71 74 74 72
29 20 16 17 10 10 9 9 10 10 10 11 12 14 14 16 17 19 19 17 18 23 25 29 35 40 39 40 39 41 49 49 58 65 68 71 72 74 74 76 75 75 76 75
37 24 22 22 16 11 10 9 9 12 12 12 14 15 15 14 14 14 13 13 15 19 23 27 27 38 40 42 41 46 50 53 57 64 68 71 71 73 76 77 76 79 77 76
36 33 40 20 14 13 13 10 8 10 11 12 16 16 14 13 13 15 15 17 21 12 18 27 17 16 30 38 50 52 58 56 59 63 66 70 73 75 76 74 77 78 78 78
36 33 28 21 17 16 16 15 10 10 10 12 12 13 16 12 12 14 17 19 19 13 15 32 24 26 32 34 48 52 54 60 59 61 66 68 74 76 75 76 76 77 75 79
35 37 34 25 14 11 12 20 16 13 14 12 12 16 31 33 29 29 30 32 35 29 27 19 30 20 37 34 43 53 53 54 60 61 65 67 71 77 76 75 76 70 74 75
32 37 25 23 17 13 24 50 36 34 36 23 23 38 37 32 34 34 36 37 35 37 38 40 40 37 46 39 40 44 50 53 60 64 66 68 73 76 77 78 76 79 77 76
30 36 40 22 18 35 46 38 31 32 33 38 36 34 35 35 40 40 41 38 32 38 41 38 42 46 55 58 56 54 56 58 64 69 60 55 76 77 78 80 83 82 83 78
26 26 32 23 23 20 18 23 32 30 25 28 27 28 29 37 45 46 45 42 35 34 42 42 45 53 58 67 64 60 66 70 69 70 70 70 77 79 75 82 77 80 76 74
29 25 26 22 18 18 19 21 20 22 22 22 27 26 27 30 39 51 54 48 48 53 53 53 51 52 63 64 62 66 70 74 74 74 75 73 63 68 68 69 74 76 73 74
36 35 33 26 22 22 20 22 21 20 21 22 25 26 34 39 49 54 58 58 56 62 62 64 69 73 70 72 67 66 69 70 73 65 76 73 72 62 68 69 66 66 68 66
44 40 47 46 30 26 26 24 25 25 26 25 27 35 41 44 52 61 66 68 64 62 60 60 60 64 68 68 73 70 69 62 58 56 58 64 67 70 95 88 97 100 100 93
57 50 46 46 43 35 35 30 27 28 28 31 29 35 41 46 59 70 72 70 70 72 70 74 74 66 65 68 64 74 73 73 55 59 51 62 63 63 68 93 100 100 100 100
75 71 73 56 51 40 38 31 31 27 24 26 30 32 35 40 62 69 74 73 76 74 76 72 61 64 63 65 71 70 70 84 55 59 57 62 68 70 65 72 73 76 95 94
77 72 69 58 51 46 39 35 38 30 32 31 31 34 34 40 66 74 75 69 78 80 83 73 76 74 60 59 62 68 60 52 56 60 63 64 64 63 60 66 69 69 69 78
58 73 66 72 63 48 43 42 46 38 36 38 39 40 40 58 73 83 82 71 84 86 83 82 81 71 61 64 66 59 63 75 64 54 55 54 54 55 59 63 63 66 65 69
77 71 76 72 59 49 46 43 43 40 40 43 52 62 57 70 94 94 80 79 81 80 79 79 77 72 62 56 57 50 47 50 64 51 52 52 53 54 54 56 59 63 60 82
94 91 74 69 61 54 52 51 50 56 66 62 68 70 75 95 98 93 83 72 74 71 70 70 74 62 60 57 49 46 44 44 45 44 48 54 54 56 59 59 61 64 58 79
91 92 92 93 92 93 96 90 93 92 93 93 94 95 95 92 94 88 78 73 75 78 75 69 72 61 60 73 56 45 47 47 51 54 56 65 60 66 69 72 75 72 71 71
91 90 91 92 92 95 96 94 92 94 93 89 89 92 95 96 92 88 80 86 78 71 66 67 62 52 55 60 67 58 59 59 62 69 75 75 77 78 85 95 91 87 86 85
80 91 92 90 91 92 93 93 91 95 93 94 93 95 96 96 93 93 95 94 82 74 72 72 67 62 51 44 41 43 50 53 66 67 69 72 78 82 88 89 94 95 94 94
51 55 75 81 88 91 91 90 88 90 93 93 93 93 93 94 93 94 95 96 94 84 87 82 74 77 66 58 46 43 40 46 49 57 62 66 72 80 85 89 91 91 94 94
49 48 52 60 65 70 72 79 83 84 82 82 84 85 90 94 93 92 92 91 89 80 86 86 88 85 80 78 64 59 59 59 55 51 54 58 63 66 74 74 76 82 91 95
43 50 49 52 50 55 58 53 48 55 57 54 50 51 49 52 49 38 38 48 61 47 40 50 64 72 64 62 63 54 52 61 63 60 55 60 47 50 61 68 72 71 80 84
41 40 40 39 43 44 49 50 49 50 48 50 48 43 39 39 41 38 36 35 51 39 32 50 57 56 35 35 35 45 52 53 54 57 61 63 52 50 53 52 52 59 61 73
36 28 30 40 31 29 29 33 34 33 34 36 33 30 29 29 29 29 34 37 32 36 25 26 27 25 28 30 32 33 36 36 45 49 53 53 53 55 55 51 49 48 48 46
30 39 27 27 25 26 25 28 27 27 29 30 29 27 25 24 27 26 35 24 23 22 23 24 21 26 22 23 24 27 30 31 43 34 34 38 42 42 43 45 46 47 47 48